Sharm El Sheikh, Egypt

3:34 AM EET on April 24, 2018 (GMT +0200)
Sharm El Sheikh

Weather History for HESH - September, 2013

Change the Weather History Date:

Sunday, September 29, 2013

  Actual Average Record
Temperature  
Mean Temperature 85 °F -  
Max Temperature 95 °F 88 °F - ()
Min Temperature 75 °F 73 °F - ()
Cooling Degree Days 20    
Growing Degree Days 35 (Base 50)    
Moisture  
Dew Point 57 °F    
Average Humidity 42    
Maximum Humidity 61    
Minimum Humidity 25    
Precipitation  
Precipitation 0.00 in 0.00 in - ()
Sea Level Pressure  
Sea Level Pressure 29.81 in    
Wind  
Wind Speed 9 mph ()    
Max Wind Speed 14 mph    
Max Gust Speed -    
T = Trace of Precipitation, MM = Missing Value Source: Averaged Metar Reports

Daily Weather History Graph

Daily Weather History Graph

Search for Another Location

Airport or City:

Astronomy

Sep. 29, 2013 Rise Set
Actual Time 5:34 AM EET 5:30 PM EET
Civil Twilight 5:10 AM EET 5:54 PM EET
Nautical Twilight 4:43 AM EET 6:21 PM EET
Astronomical Twilight 4:16 AM EET 6:48 PM EET
Moon 12:20 AM EET (9/29) 1:52 PM EET (9/29)
Length of Visible Light 12h 43m
Length of Day
11h 56m
Waning Crescent, 29% of the Moon is Illuminated
Sep 29
Waning Crescent
Oct 5
New
Oct 12
First Quarter
Oct 19
Full
Oct 27
Last Quarter

Hourly Weather History & Observations

Time (EET) Temp. Heat Index Dew Point Humidity Pressure Visibility Wind Dir Wind Speed Gust Speed Precip Events Conditions
12:00 AM 80.6 °F 80.5 °F 55.4 °F 42% 29.80 in - North 11.5 mph - N/A   Clear
1:00 AM 78.8 °F - 62.6 °F 57% 29.80 in - North 12.7 mph - N/A   Clear
2:00 AM 78.8 °F - 62.6 °F 57% 29.80 in - North 12.7 mph - N/A   Clear
3:00 AM 77.0 °F - 62.6 °F 61% 29.80 in - North 13.8 mph - N/A   Clear
4:00 AM 77.0 °F - 62.6 °F 61% 29.80 in - North 11.5 mph - N/A   Clear
5:00 AM 75.2 °F - 60.8 °F 61% 29.83 in - North 11.5 mph - N/A   Clear
6:00 AM 75.2 °F - 59.0 °F 57% 29.83 in - North 9.2 mph - N/A   Clear
7:00 AM 80.6 °F 80.8 °F 57.2 °F 45% 29.83 in - North 9.2 mph - N/A   Clear
8:00 AM 82.4 °F 81.7 °F 55.4 °F 39% 29.86 in - NNE 13.8 mph - N/A   Clear
9:00 AM 84.2 °F 83.8 °F 59.0 °F 42% 29.86 in - NNE 12.7 mph - N/A   Clear
10:00 AM 87.8 °F 87.1 °F 59.0 °F 38% 29.86 in - NNE 10.4 mph - N/A   Clear
11:00 AM 91.4 °F 89.9 °F 57.2 °F 31% 29.83 in - NNE 9.2 mph - N/A   Clear
12:00 PM 93.2 °F 91.9 °F 57.2 °F 30% 29.83 in - NE 8.1 mph - N/A   Clear
1:00 PM 95.0 °F 92.7 °F 53.6 °F 25% 29.80 in - NNE 5.8 mph - N/A   Clear
2:00 PM 95.0 °F 92.7 °F 53.6 °F 25% 29.77 in - ENE 4.6 mph - N/A   Clear
3:00 PM 95.0 °F 93.0 °F 55.4 °F 26% 29.77 in - Variable 2.3 mph - N/A   Clear
4:00 PM 93.2 °F 91.3 °F 55.4 °F 28% 29.77 in - SE 3.5 mph - N/A   Clear
5:00 PM 89.6 °F 87.7 °F 55.4 °F 31% 29.77 in - Variable 3.5 mph - N/A   Clear
6:00 PM 82.4 °F 82.0 °F 57.2 °F 42% 29.77 in - NNE 5.8 mph - N/A   Clear
7:00 PM 82.4 °F 82.0 °F 57.2 °F 42% 29.77 in - NNE 6.9 mph - N/A   Clear
8:00 PM 80.6 °F - 51.8 °F 37% 29.80 in - North 8.1 mph - N/A   Clear
9:00 PM 80.6 °F 80.5 °F 55.4 °F 42% 29.80 in - North 6.9 mph - N/A   Clear
10:00 PM 80.6 °F 81.1 °F 59.0 °F 48% 29.80 in - North 6.9 mph - N/A   Clear
11:00 PM 80.6 °F 80.3 °F 53.6 °F 39% 29.77 in - North 11.5 mph - N/A   Clear